Dewpoint
71 71 73 75 75 75 75 75 75 75 74 74 73 73 73 73 72 72 71 71 71 70 70 70 70 70 70 71 71 71 71 72 72 72 72 71 71 71 71 71 71 71 70 70 70 70 70 70 71 71 71 71 71 71 71 71 71 71 71 71 71 71 71 71 70 70 70 69 69 69 68 68 68 67 67 66 66 66 65 65 65 63 64 64 64
70 72 74 74 75 75 75 75 75 74 74 73 73 73 73 72 72 72 71 71 70 70 71 70 70 70 71 71 71 71 72 72 72 72 72 72 72 71 71 71 71 71 71 71 71 71 70 71 70 71 71 71 70 71 71 71 70 71 71 71 71 71 71 71 70 70 69 69 68 67 67 67 67 67 67 67 66 66 65 65 65 63 62 64 64
71 72 74 74 75 75 75 75 74 74 74 73 73 73 73 72 72 72 72 71 71 71 71 71 70 70 70 71 71 71 72 72 72 72 72 71 71 71 71 71 71 71 71 70 70 71 71 71 71 71 71 71 71 71 71 71 70 70 70 71 70 71 71 70 70 69 68 68 67 67 66 66 65 65 65 65 65 66 66 66 65 64 62 64 64
71 72 73 74 75 75 75 74 74 74 74 73 73 73 72 72 72 72 71 71 71 71 71 70 70 70 71 71 71 72 72 72 72 72 71 71 71 71 71 71 71 71 71 71 70 70 71 71 71 71 71 71 71 71 70 70 70 70 71 71 71 71 71 70 70 69 67 66 66 66 66 64 64 65 66 67 68 68 67 65 65 64 64 63 64
71 72 73 74 74 74 74 74 74 74 73 73 73 72 72 72 72 72 71 71 71 71 70 70 70 71 71 71 71 72 72 72 72 72 71 71 71 71 71 71 71 71 71 71 71 71 71 71 71 71 71 71 71 71 71 70 71 71 71 71 71 70 71 70 69 68 67 66 65 65 62 62 62 65 66 66 67 68 67 67 67 66 65 64 64
71 71 72 73 73 74 74 74 74 73 73 73 73 72 72 72 71 71 71 70 71 71 71 71 71 71 71 71 72 72 72 72 72 71 71 71 72 71 72 71 71 71 71 71 71 70 71 71 71 71 71 71 71 70 70 70 70 70 70 70 70 70 70 70 70 69 69 70 68 63 61 62 63 63 67 67 67 66 66 65 65 65 65 65 66
69 70 71 72 73 73 74 74 73 73 73 73 72 72 72 71 71 71 71 71 71 71 71 71 72 72 71 71 71 72 72 72 72 72 72 71 71 71 71 72 72 71 71 71 71 71 71 71 70 70 70 70 70 69 70 70 69 69 69 69 69 69 69 70 70 69 70 71 68 60 61 61 61 61 65 65 65 66 65 65 65 66 66 66 66
68 70 71 72 73 73 73 73 73 73 73 72 72 72 71 71 71 71 71 71 70 70 70 71 72 72 71 71 71 71 72 72 72 72 72 72 71 71 71 71 71 71 70 70 70 70 70 70 70 70 70 69 69 69 69 69 68 68 68 68 68 68 68 68 68 68 68 69 66 60 60 60 61 61 64 65 65 64 65 65 64 65 65 65 66
68 70 71 72 73 73 73 73 73 72 72 72 72 71 71 71 71 71 71 70 70 70 69 70 71 71 71 71 71 71 72 72 72 72 72 71 71 71 70 70 71 71 71 70 70 70 70 70 70 70 70 69 69 68 67 67 67 67 67 67 67 67 67 69 69 70 69 65 58 59 61 63 64 64 65 66 65 64 64 64 63 64 64 64 64
69 70 71 72 72 73 73 73 73 72 72 71 71 71 71 70 70 70 71 70 69 69 69 69 70 71 71 70 71 71 72 72 72 72 72 71 71 71 70 70 70 70 70 70 70 70 70 70 70 70 69 68 68 68 67 66 66 66 66 66 67 68 68 69 70 65 62 62 62 63 63 66 65 66 67 67 66 66 65 64 65 64 64 65 65
69 69 71 72 72 73 73 72 72 72 72 71 71 71 70 70 70 70 70 70 69 69 69 69 69 70 71 72 72 72 72 72 72 72 71 71 71 71 71 70 70 70 70 70 70 70 70 70 70 69 68 67 66 67 67 66 66 66 66 67 68 67 68 69 69 63 62 63 63 63 64 67 66 66 68 69 68 67 65 64 64 64 64 64 65
68 69 70 71 73 72 72 72 72 72 72 71 71 70 70 70 70 70 69 69 69 69 69 70 70 70 71 72 72 72 72 72 72 71 71 71 71 70 70 70 70 70 70 70 70 70 70 70 69 69 68 67 66 66 66 66 66 66 67 67 67 68 68 68 68 66 61 62 63 63 64 64 65 66 68 68 67 67 65 63 63 65 66 64 64
69 70 71 71 71 72 72 72 72 72 71 70 70 70 70 70 70 69 69 70 70 70 69 69 70 70 71 71 71 72 72 72 71 71 71 71 70 70 69 70 70 70 70 70 70 70 70 69 69 69 68 67 66 66 66 66 65 67 67 66 67 68 68 69 67 61 63 64 65 66 66 66 66 68 67 67 67 66 65 65 64 64 63 63 64
69 70 70 70 71 72 72 71 71 71 71 71 71 70 70 70 70 70 70 70 71 71 70 70 71 70 70 71 71 72 72 72 71 71 71 71 70 70 70 69 70 70 70 70 70 70 70 70 70 69 68 67 66 66 66 67 66 66 66 67 67 68 69 68 66 62 63 64 65 64 65 66 65 66 66 66 66 65 64 64 64 63 64 63 63
68 69 69 70 70 71 72 72 72 71 71 71 71 71 71 71 71 71 71 71 71 70 69 69 69 69 70 70 71 71 71 71 71 71 70 70 70 70 70 70 70 70 69 70 70 70 70 69 69 68 68 67 67 67 67 66 66 66 67 67 68 69 69 68 60 62 62 64 64 63 63 63 65 65 65 65 65 63 63 64 64 63 64 64 64
68 68 69 70 70 70 70 71 72 71 71 71 71 71 71 71 71 71 71 70 70 70 69 69 69 69 70 71 71 71 71 71 71 70 70 70 70 70 70 69 70 70 70 70 70 70 70 70 69 69 67 67 66 66 66 67 66 67 67 68 68 69 70 72 64 61 61 61 62 63 63 64 67 65 64 64 64 63 63 63 64 64 64 64 63
68 68 69 69 70 69 69 70 71 71 72 72 71 71 71 71 71 71 71 70 70 70 69 69 69 70 71 71 71 71 70 70 70 70 70 69 69 70 70 69 69 69 69 70 70 70 70 69 69 69 68 67 67 67 67 67 67 67 67 68 68 69 70 73 60 61 61 62 62 61 62 62 64 64 63 64 63 63 63 63 64 64 63 63 62
67 67 68 68 68 69 70 70 70 70 71 71 71 71 71 71 72 72 72 71 71 70 70 71 70 70 71 71 71 70 70 70 70 70 69 69 69 69 69 69 69 69 69 70 70 69 69 69 69 68 67 67 67 67 66 67 66 66 67 67 68 69 70 70 62 62 63 64 62 64 64 65 65 63 63 63 62 62 63 62 62 62 63 64 63
67 67 67 67 67 68 69 70 70 70 70 70 71 71 71 71 72 72 72 72 72 72 72 72 71 71 71 71 70 70 70 69 69 69 69 69 69 69 69 69 69 69 69 70 70 70 69 69 68 69 67 67 67 66 66 66 66 66 66 68 68 69 69 65 62 62 62 62 62 62 63 66 65 63 63 62 62 61 62 63 62 63 62 62 62
69 70 70 68 68 68 69 68 68 69 69 70 70 71 71 71 71 71 71 71 71 72 72 72 71 71 71 71 70 70 69 69 69 69 69 68 69 70 69 68 69 68 69 69 70 70 69 69 69 68 68 67 67 66 66 66 66 66 67 68 68 68 65 64 61 61 62 62 63 62 64 64 64 63 62 63 62 62 62 62 64 63 63 62 62
68 68 69 70 69 68 67 67 68 68 69 69 70 71 71 71 71 71 71 71 71 71 72 71 71 71 70 71 71 70 69 68 68 68 68 68 69 70 69 69 68 68 69 69 70 69 70 69 69 68 68 67 66 66 66 66 67 67 68 68 67 64 64 61 62 63 62 63 63 63 65 65 63 62 63 62 61 61 61 62 62 63 62 62 61
67 67 69 70 70 69 69 69 69 70 69 70 70 71 71 71 70 70 70 70 71 71 71 71 71 69 71 71 70 69 68 68 69 69 69 68 69 69 68 69 69 69 69 69 69 70 70 69 69 68 68 67 67 64 65 67 66 66 66 67 66 64 64 62 61 61 61 62 63 64 63 65 63 62 61 62 61 62 62 62 62 61 61 60 60
66 67 67 69 69 69 69 69 69 69 69 69 70 70 69 69 70 70 70 71 70 71 69 70 69 70 70 70 69 67 67 67 68 69 70 69 69 69 68 68 69 69 69 69 69 70 70 69 69 69 68 68 65 64 62 61 60 64 66 64 63 64 64 61 60 60 60 62 61 64 63 63 62 62 62 62 61 60 60 61 61 61 62 62 61
66 67 67 68 69 69 68 68 68 69 69 69 69 69 68 68 69 69 69 69 69 69 69 68 67 68 68 68 67 66 67 67 69 69 70 69 69 69 69 68 69 69 69 69 69 70 70 70 69 69 69 68 65 64 62 59 58 59 60 61 62 64 62 60 60 60 61 62 61 63 62 63 62 62 62 61 61 61 60 61 61 61 61 61 60
66 67 67 68 69 69 69 69 69 69 69 69 69 69 70 70 69 69 68 68 68 67 68 68 68 69 68 68 68 66 67 67 68 68 69 69 68 68 67 66 67 67 69 67 68 68 70 69 68 68 67 67 65 63 63 60 59 59 60 61 62 64 60 60 60 60 60 61 63 63 63 63 62 62 62 61 60 60 61 60 61 60 61 61 60
67 66 66 68 68 69 69 69 69 69 68 68 69 70 69 69 68 68 67 68 68 67 67 68 68 67 68 67 67 67 67 66 67 68 68 68 67 66 66 65 65 66 69 67 67 68 69 68 68 67 67 66 64 63 63 63 59 60 60 61 62 62 59 59 59 60 61 62 62 63 62 62 62 62 62 61 61 60 61 60 61 60 60 60 60
66 66 67 68 68 68 69 68 68 68 68 69 69 69 68 68 68 67 67 67 68 67 67 67 67 67 68 68 66 66 66 66 67 67 67 68 68 68 67 66 65 64 65 66 65 67 68 68 67 67 66 65 64 63 63 63 61 59 61 61 60 61 60 60 60 60 61 62 63 63 63 63 63 63 61 61 61 61 61 61 61 61 60 60 60
67 67 67 68 67 68 68 68 68 68 68 68 68 68 68 69 68 69 67 68 68 67 66 67 66 68 68 68 68 67 67 66 66 67 67 67 67 67 67 68 67 66 66 63 62 65 68 67 66 66 64 63 62 62 62 63 61 62 61 58 59 60 60 60 60 60 61 61 62 63 64 64 63 63 62 62 62 61 61 62 61 61 60 60 60
66 67 67 68 68 68 68 68 68 68 68 68 67 68 68 69 68 66 66 68 67 67 67 68 67 68 67 67 69 67 68 67 66 67 67 66 67 67 67 67 67 67 67 65 64 62 64 65 65 65 64 63 62 63 63 62 60 61 61 59 59 61 62 61 61 60 61 61 61 62 63 63 63 63 62 62 62 61 61 62 61 61 61 60 60
66 67 67 67 68 68 68 68 68 68 68 67 68 68 69 68 68 68 68 68 67 67 67 67 67 67 67 67 68 67 67 67 67 67 67 66 66 66 67 67 67 67 67 66 66 65 64 64 64 63 63 63 65 65 64 64 62 60 60 59 62 62 61 61 61 60 60 61 61 63 63 63 63 63 63 62 62 62 62 61 61 62 62 61 61
67 66 67 67 68 69 68 69 69 69 68 68 68 68 68 68 69 69 69 67 67 68 67 67 66 66 67 67 68 68 67 67 66 66 66 66 66 66 66 66 67 67 66 66 66 66 65 63 63 63 64 63 64 64 64 63 62 59 59 59 61 61 61 61 61 60 60 60 61 62 63 64 63 63 63 63 62 62 62 61 62 62 62 62 61
65 66 66 67 67 67 68 69 68 69 68 69 69 68 68 69 68 68 68 68 68 68 67 67 68 66 66 66 66 67 67 66 66 65 66 66 66 66 66 67 67 67 67 67 66 66 66 65 64 64 65 65 64 64 64 64 63 60 57 60 61 60 61 60 60 60 60 60 61 61 62 63 64 64 65 65 63 62 61 62 63 62 62 62 61
66 66 67 67 67 66 67 67 68 69 67 67 68 68 69 69 68 68 68 68 67 67 67 67 66 66 66 66 66 67 67 67 66 66 67 66 66 66 67 67 67 67 67 66 66 66 66 66 65 65 64 64 64 64 64 64 63 61 59 60 60 60 61 62 60 60 60 60 60 60 62 63 63 64 64 64 65 63 62 62 62 63 63 62 62
66 66 67 67 68 68 68 67 68 68 67 68 68 67 68 68 69 69 69 68 68 67 67 67 67 67 66 65 66 67 67 67 67 66 67 66 66 67 67 67 67 66 66 66 66 66 66 65 65 65 65 63 62 63 63 62 62 62 61 60 60 61 61 61 62 59 59 59 60 61 62 63 63 64 63 64 64 63 64 64 63 63 63 62 63
66 66 65 66 67 67 68 68 67 67 67 67 67 67 68 68 68 69 68 68 68 67 67 67 67 67 67 66 67 67 67 67 67 67 66 66 66 66 66 66 66 66 66 66 66 66 66 65 65 64 64 63 63 62 62 62 62 62 61 63 60 63 63 61 63 62 59 59 60 61 61 62 63 64 63 62 64 63 64 66 64 64 63 63 63
65 66 67 67 67 67 68 67 67 66 66 67 67 67 67 67 67 69 68 68 68 67 67 66 66 67 68 68 68 68 67 67 67 67 66 66 66 66 66 66 66 66 66 66 66 65 64 65 65 64 63 63 63 63 62 62 62 62 62 63 65 64 64 64 64 63 61 60 60 60 61 62 64 64 64 63 63 64 66 65 66 65 63 64 63
66 66 66 66 67 66 67 67 67 67 66 66 67 67 67 66 66 66 66 67 67 67 67 67 66 67 67 67 67 68 67 67 67 67 67 66 66 66 66 66 66 66 65 65 65 65 64 65 64 64 63 62 63 63 63 63 62 62 63 63 63 63 63 63 63 64 64 64 63 61 61 63 64 66 65 64 65 65 66 67 66 67 65 65 64
66 66 66 66 66 66 67 67 67 67 67 66 67 67 68 66 67 67 68 67 66 67 66 66 66 66 66 66 67 67 67 67 67 67 67 66 66 66 65 66 67 66 65 65 65 65 65 64 64 64 64 63 62 62 62 62 62 63 62 63 63 63 64 64 64 65 64 64 65 64 62 63 64 65 65 65 65 65 66 67 67 67 65 65 65
66 66 66 66 67 67 67 67 67 67 67 67 68 68 67 67 67 67 67 66 65 66 66 65 66 66 66 66 66 67 68 68 67 67 67 67 66 66 66 66 66 66 66 66 65 65 64 64 64 63 63 63 63 62 63 62 62 63 62 63 63 62 64 65 64 64 64 64 65 65 64 63 64 65 65 65 65 65 65 65 65 65 65 65 66
67 67 66 67 66 65 66 66 66 67 67 67 67 66 66 67 65 65 66 66 65 65 66 65 66 66 66 66 66 66 67 67 66 66 66 67 66 66 65 65 65 66 65 65 65 64 64 64 63 63 62 63 64 63 62 63 62 61 60 61 64 63 64 63 65 64 64 64 65 65 65 65 64 64 65 65 66 65 65 65 66 65 65 65 66
64 66 66 66 67 66 65 65 66 66 65 66 66 65 63 64 65 65 65 65 65 65 65 65 66 65 65 65 66 66 65 65 65 65 65 66 66 65 65 65 66 66 65 65 65 65 65 64 63 62 62 62 62 63 62 63 61 60 61 61 61 63 64 64 63 64 64 64 65 65 64 64 64 65 65 66 66 65 65 65 65 65 64 64 65
62 62 63 64 64 65 66 66 66 66 66 67 66 66 65 65 64 64 64 65 64 64 64 65 65 65 65 65 65 64 64 64 65 65 65 66 65 65 65 65 66 66 65 66 65 66 65 65 64 62 62 62 61 62 62 63 60 60 58 58 59 60 62 63 63 64 64 63 64 63 63 63 64 64 64 65 65 66 65 65 64 64 64 64 64
60 61 62 62 63 63 64 65 66 66 66 66 66 65 66 66 65 64 65 64 65 65 64 65 65 65 65 65 65 65 65 65 65 65 65 66 66 65 65 66 66 66 66 65 65 65 65 65 64 63 62 62 62 63 63 63 59 60 60 58 56 56 59 60 61 62 63 64 64 63 63 63 63 64 64 64 64 66 66 65 64 64 64 64 64
59 59 60 61 61 61 62 62 64 66 65 65 66 66 66 66 66 66 66 65 64 66 65 65 65 64 64 65 65 65 65 65 65 66 66 67 66 66 66 66 66 66 66 65 65 64 64 65 63 63 63 62 63 62 64 63 61 59 56 57 57 57 55 57 58 60 62 62 64 63 63 62 63 64 64 64 64 64 64 64 63 64 63 64 64
58 59 59 60 61 60 61 61 61 63 64 63 64 66 66 65 65 65 65 65 64 64 64 64 65 65 64 64 65 65 65 65 65 65 66 66 66 66 66 66 66 66 66 65 64 64 64 64 64 63 63 62 62 63 63 64 63 62 59 56 55 55 55 56 58 59 62 62 63 63 63 62 63 63 63 63 64 64 63 64 64 64 64 63 64
58 59 59 60 59 59 59 59 60 61 60 61 61 63 64 65 64 63 63 61 61 61 62 62 63 64 64 64 65 65 65 65 65 66 66 65 65 66 66 66 66 66 64 63 63 63 63 64 62 63 62 63 62 62 62 63 63 63 62 60 59 55 55 56 57 55 61 62 61 63 63 63 63 63 63 63 64 64 64 64 63 63 64 64 64
57 58 58 58 58 58 58 59 59 59 60 60 60 61 62 63 63 64 64 63 62 62 63 63 63 63 64 65 66 66 66 66 65 65 65 65 65 65 65 65 64 64 64 64 64 64 63 63 63 64 64 63 62 61 61 62 63 63 63 62 62 61 62 58 56 57 56 58 60 61 62 63 63 62 63 63 64 63 63 63 63 63 64 64 64
56 57 57 57 57 57 57 58 58 58 58 59 59 60 60 61 62 63 63 63 63 63 63 62 62 62 63 64 64 65 65 65 65 65 65 65 65 65 65 64 65 64 64 64 64 64 64 64 64 63 63 64 63 62 61 62 61 60 62 61 61 62 62 61 60 58 57 56 58 61 61 62 62 62 63 63 64 63 62 62 64 64 64 64 64
56 55 56 56 57 57 56 57 56 57 58 59 59 59 60 60 60 61 61 62 62 63 64 64 62 62 62 63 64 65 65 65 65 65 65 65 65 65 64 64 63 63 64 64 64 65 64 63 63 63 62 63 63 62 62 62 62 61 60 60 61 60 61 60 60 60 57 55 55 58 59 62 61 61 62 63 63 63 63 62 63 64 63 63 63
56 56 55 55 56 55 55 55 56 56 57 58 59 59 59 59 59 59 60 60 60 61 62 62 62 62 62 62 63 64 64 64 64 64 65 65 65 64 65 64 64 64 64 64 63 63 64 63 63 62 62 63 64 63 62 62 62 62 62 60 59 59 59 59 58 59 59 58 56 57 59 59 58 60 62 62 63 63 63 62 62 62 61 61 61
54 54 54 54 55 54 54 54 56 55 56 57 57 57 58 58 58 59 59 59 59 59 59 60 61 60 61 62 62 63 64 64 64 64 64 64 65 64 64 64 64 64 64 64 64 64 63 64 63 63 62 62 62 62 62 62 62 62 62 61 60 60 59 58 58 59 59 58 57 58 59 60 59 59 61 63 63 62 62 62 62 61 60 60 60